Regional Weather Roundup
Issued by NWS

Home | Current Version | Previous Version | Text Only | Print | Product List | Glossary Off
Versions: 1 2 3 4 5 6 7 8 9 10 11 12 13 14 15 16 17 18 19 20 21 22 23 24 25 26 27 28 29 30 31 32 33 34 35 36 37 38 39 40 41 42 43 44 45 46 47 48 49 50

000
ASUS43 KFSD 100602
RWRSD

WEATHER ROUNDUP FOR SOUTH DAKOTA
NATIONAL WEATHER SERVICE SIOUX FALLS SD
1200 AM CST SAT DEC 10 2016

NOTE: "FAIR" INDICATES FEW OR NO CLOUDS BELOW 12,000 FEET WITH NO
SIGNIFICANT WEATHER AND/OR OBSTRUCTIONS TO VISIBILITY.


SDZ001>005-009-010-012>017-100700-
NORTHWEST AND NORTH CENTRAL SOUTH DAKOTA

CITY           SKY/WX    TMP DP  RH WIND       PRES   REMARKS
BUFFALO          N/A     -3  -8  79 SE13      30.18F WCI -22
FAITH            N/A     -6  -8  91 SE7       30.35F WCI -20
MOBRIDGE       CLOUDY    -7 -13  75 N3        30.44F
$$

SDZ012>016-024>037-041>051-057-063-072>074-100700-
SOUTHWEST AND SOUTH CENTRAL SOUTH DAKOTA

CITY           SKY/WX    TMP DP  RH WIND       PRES   REMARKS
RAPID CTY ARPT CLOUDY     2  -2  83 SE14      30.25F WCI -16
PIERRE         CLOUDY    -5 -10  79 NE6       30.47F WCI -18
CUSTER         LGT SNOW   6   1  80 W3        30.02S VSB 1
ELLSWORTH AFB  CLOUDY     2  -2  82 S13       30.23F WCI -15
PHILIP         CLOUDY     1  -2  87 E6        30.41F WCI -10
PINE RIDGE     LGT SNOW   4   2  91 E7        30.25F VSB 3/4 WCI  -8
SPEARFISH      CLOUDY     0  -4  85 CALM      30.14F
WINNER         CLOUDY     6   2  83 NE5       30.43F WCI  -3
$$

SDZ004>011-016>023-039-040-100700-
NORTHEAST SOUTH DAKOTA

CITY           SKY/WX    TMP DP  RH WIND       PRES   REMARKS
ABERDEEN       CLOUDY    -6 -14  68 N7        30.54S WCI -20
WATERTOWN      CLOUDY     0  -5  79 CALM      30.46S
SISSETON         N/A     -5 -10  79 NW9       30.54S WCI -22
$$

SDZ017-020-022-023-036>040-048>070-100700-
SOUTHEAST SOUTH DAKOTA

CITY           SKY/WX    TMP DP  RH WIND       PRES   REMARKS
SIOUX FALLS    CLOUDY    11   7  84 N6        30.48S WCI   1
HURON          CLOUDY     4   1  88 N8        30.52F WCI  -9
CHAMBERLAIN    CLOUDY     6   2  86 N6        30.47F WCI  -5
MITCHELL       CLOUDY     7   2  80 N9        30.53S WCI  -7
YANKTON        CLOUDY    12   9  85 NW8       30.48S WCI   1
$$

ABBREVIATIONS USED IN REMARKS
   TC - TEMPERATURE IN CELSIUS
  WCI - WIND CHILL INDEX
   HX - HEAT INDEX
  VSB - VISIBILITY





USA.gov is the U.S. government's official web portal to all federal, state and local government web resources and services.